User: anonymous   Login
Location: Slidell
(30.2789°N, 89.7378°W)
Time: 03:22:41
(UTC-05:00)
Language:

Cosmos 2360 Rocket - Orbit

View from above orbital plane
View from above orbital plane
View from above satellite
View from above satellite

Ground track
Ground track

The orbit data is extracted from the following two-line orbital elements,

1 25407U 98045B   16147.52785011 -.00000277  00000-0 -11683-3 0  9992
2 25407  71.0085 133.9720 0005572  71.3243 288.8485 14.15744247921458
Epoch (UTC): 26 May 2016 12:40:06
Eccentricity: 0.0005572
inclination: 71.0085°
perigee height: 836 km
apogee height: 844 km
right ascension of ascending node: 133.9720°
argument of perigee: 71.3243°
revolutions per day: 14.15744247
mean anomaly at epoch: 288.8485°
orbit number at epoch: 92145

The dashed part of the orbit path shows where the satellite is in the earth's shadow,  

DLR